Location: Sternwarte_Laufen
(47.9344°N, 12.9346°E)
Time: 11:58:35
(UTC+01:00)

Envisat - Visible Passes

Search period start: 18 February 2018 00:00
Search period end: 28 February 2018 00:00
Orbit: 764 x 766 km, 98.2° (Epoch: 18 February)

Date Brightness Start Highest point End Pass type
(mag) Time Alt. Az. Time Alt. Az. Time Alt. Az.
18 Feb 3.8 18:28:03 10° ESE 18:32:20 29° ENE 18:36:39 10° N visible
18 Feb 4.0 20:06:21 10° S 20:11:10 44° W 20:16:03 10° NNW visible
19 Feb 2.9 19:29:17 10° SSE 19:34:22 90° WSW 19:39:29 10° NNW visible
19 Feb 5.9 21:11:50 10° WSW 21:14:07 13° W 21:16:25 10° WNW visible
20 Feb 3.3 18:52:55 10° SE 18:57:44 45° ENE 19:02:35 10° N visible
20 Feb 4.9 20:32:41 10° SSW 20:36:57 27° W 20:41:14 10° NW visible
21 Feb 4.1 18:17:19 10° ESE 18:21:19 24° ENE 18:25:19 10° N visible
21 Feb 3.6 19:55:02 10° S 20:00:00 54° W 20:05:00 10° NNW visible
22 Feb 2.9 19:18:11 10° SSE 19:23:14 74° ENE 19:28:20 10° N visible
22 Feb 5.6 20:59:43 10° SW 21:02:50 16° W 21:05:58 10° NW visible
23 Feb 3.5 18:42:02 10° SE 18:46:40 37° ENE 18:51:20 10° N visible
23 Feb 4.6 20:21:11 10° SSW 20:25:44 33° W 20:30:19 10° NNW visible
24 Feb 3.3 19:43:47 10° S 19:48:50 68° WSW 19:53:55 10° NNW visible
25 Feb 3.0 19:07:08 10° SSE 19:12:08 60° ENE 19:17:09 10° N visible
25 Feb 5.4 20:47:52 10° SW 20:51:34 20° W 20:55:16 10° NW visible
26 Feb 3.8 18:31:13 10° SE 18:35:37 31° ENE 18:40:03 10° N visible
26 Feb 4.2 20:09:45 10° SSW 20:14:31 40° W 20:19:19 10° NNW visible
27 Feb 3.0 19:32:36 10° SSE 19:37:41 83° WSW 19:42:48 10° NNW visible
27 Feb 5.9 21:15:42 10° WSW 21:17:30 12° W 21:19:18 10° WNW visible
